Résultats du Marathon de Toulouse Métropole

Liste de résultats 2016

Place Dossard Nom Catégorie Temps officiel Photos Diplôme Détails
1 8989 CA Balma 1 HOM 02:26:38
2 8926 TACO AUCAMVILLE 1 HOM 02:36:42
3 8990 CA Balma 2 MIX 02:38:52
4 8773 Team Schoeffsen HOM 02:39:43
5 8983 Athlé 632 HOM 02:40:06
6 8383 TRACKS ATHLE 3 HOM 02:41:38
7 8077 RUN IMMOBILIER HOM 02:48:11
8 8988 ASPTT Toulouse HOM 02:51:14
9 8111 WU FU ZI HOM 02:53:39
10 8602 tisseo sport aventur HOM 02:57:40
11 8354 #Paris2024 MIX 02:57:49
12 8793 CCAS Equipe 1 HOM 02:58:22
13 8384 TRACKS ATHLE 4 HOM 02:59:59
14 8542 Les concasseurs HOM 03:00:02
15 8892 les rois lyon HOM 03:00:57
16 8100 les 4 à l'heure HOM 03:01:11
17 8939 Team Labege Tri 1 HOM 03:01:11
18 8671 LES ARIEGEOIS 2 MIX 03:03:36
19 8466 Team rocket HOM 03:03:55
20 8660 Les Josés HOM 03:04:27
21 8630 Team On et Poumba HOM 03:05:23
22 8677 Quatre à Strophe HOM 03:05:48
23 8085 CE ON SEMICONDUCTOR HOM 03:06:11
24 8442 GEEK NO GEEK HOM 03:07:44
25 8688 Petitcoeur FEM 03:08:18
26 8943 Rasta Rockett HOM 03:08:58
27 8840 CAP INNOVATION HOM 03:09:08
28 8670 AMT 31 HOM 03:09:09
29 8768 GRDF - La Team MGP HOM 03:12:09
30 8890 Les couz'rannais HOM 03:12:18
31 8617 Kayak runner HOM 03:12:26
32 8172 EDEL TEAM 1 MIX 03:12:42
33 8338 Duathlon Liebherr-HA HOM 03:12:52
34 8212 Les Tamalous MIX 03:13:41
35 8322 PREVIRIL HOM 03:13:54
36 8830 PO2P Team1 MIX 03:14:19
37 8199 Père Fils et potes MIX 03:14:34
38 8648 Cysyroni HOM 03:14:56
39 8402 STELIA Aerospace 8 MIX 03:15:00
40 8314 GfiCaces HOM 03:15:16
41 8536 Team Enjoy HOM 03:16:03
42 8003 Bonitopot Blue MIX 03:16:13
43 8131 Ah Hum de Cahau HOM 03:16:39
44 8846 CASI Running 1 MIX 03:16:46
45 8742 Team Ecureuil HOM 03:16:48
46 8683 les fatigués HOM 03:16:55
47 8105 CHIARISOLI MIX 03:17:01
48 8333 Les Daltons HOM 03:17:03
49 8032 Bonitopot Red MIX 03:17:05
50 8544 Double Duo Bdx MIX 03:17:07
51 8754 les 4 fan_TAS_tiques HOM 03:17:28
52 8920 TEAM RORO HOM 03:17:40
53 8900 Sogeti High Tech 2 HOM 03:17:48
54 8995 LES KANGOUROUS HOM 03:17:52
55 8407 IDLOG HOM 03:18:56
56 8551 Les CLEDADAGUILIO HOM 03:19:19
57 8823 TEAM MALIBU HOM 03:19:42
58 8447 Los caballeros HOM 03:20:17
59 8945 Merville Trail 31 HOM 03:20:24
60 8766 GRDF - Les FADA HOM 03:20:39
61 8724 Le vélo pélo HOM 03:20:41
62 8011 BANQUE DE FRANCE 3 MIX 03:20:56
63 8970 LHFA MIX 03:21:05
64 8147 Les Joliot coureurs MIX 03:21:19
65 8821 les flèches molles MIX 03:21:32
66 8429 ENFANTS DU MEKONG 2 HOM 03:21:38
67 8381 TRACKS ATHLE 1 FEM 03:21:39
68 8986 Team QOI HOM 03:21:49
69 8879 SOCOTEC HOM 03:22:02
70 8702 TEAM 3D MIX 03:22:02
71 8361 ANESTHESIE MEDIPOLE MIX 03:22:06
72 8914 Borderougeteam elite HOM 03:22:28
73 8608 Les Yaks du TOAC HOM 03:22:47
74 8393 STELIA Aerospace 7 HOM 03:22:56
75 8740 GRDF - GAZ and RUN MIX 03:23:11
76 8209 Les Aveyronnais HOM 03:23:13
77 8592 2 Fat 2 Furious HOM 03:23:19
78 8658 Tonton Bruno HOM 03:23:29
79 8573 LES SACRES MAGRETS MIX 03:23:31
80 8582 LES ENTRAYOLS HOM 03:23:52
81 8910 I-RUN - PTNF MIX 03:24:20
82 8519 Barreau de toulouse1 MIX 03:24:22
83 8877 LesMainsDeMATHILDE2 HOM 03:24:27
84 8170 Ricouns Team HOM 03:24:32
85 8482 TAV_3 HOM 03:24:51
86 8760 Team stock HOM 03:25:04
87 8687 Usain pole HOM 03:25:20
88 8023 l'étoile de mortioux MIX 03:25:27
89 8669 Les Gauguinois HOM 03:25:32
90 8590 CARGO CENTRAKOR MIX 03:25:33
91 8185 SUDOTRANS 3 HOM 03:25:35
92 8596 Les Tontons HOM 03:25:39
93 8389 X2I Running 1 MIX 03:25:41
94 8623 L'échappée verte MIX 03:25:42
95 8240 Les Géocoureurs MIX 03:26:08
96 8274 les revenants HOM 03:26:09
97 8266 Lycée Rive Gauche MIX 03:26:15
98 8917 RTP 2 HOM 03:26:21
99 8230 TO BE MAX MIX 03:26:22
100 8994 GAGNAC A LA GAGNE MIX 03:26:29
Organisé par
Toulouse Metropole
Nous contacter

Newsletter

Irun

Suivez-nous sur

 Facebook  Twitter  Youtube  RSS

Météo

Résultats